Bolton Field, OH

7:35 AM EDT on March 27, 2017 (GMT -0400)
Bolton

Weather History for KTZR - December, 2011

Change the Weather History Date:

Monday, December 12, 2011

  Actual Average Record
Temperature  
Mean Temperature 30 °F -  
Max Temperature 43 °F 40 °F 68 °F (2015)
Min Temperature 17 °F 28 °F 6 °F (2013)
Degree Days  
Heating Degree Days 36    
Moisture  
Dew Point 19 °F    
Average Humidity 80    
Maximum Humidity 91    
Minimum Humidity 42    
Precipitation  
Precipitation 0.00 in - - ()
Sea Level Pressure  
Sea Level Pressure 30.44 in    
Wind  
Wind Speed 0 mph (SSE)    
Max Wind Speed 6 mph    
Max Gust Speed -    
Visibility 10 miles    
Events      
Averages and records for this station are not official NWS values.
T = Trace of Precipitation, MM = Missing Value Source: NWS Daily Summary

Daily Weather History Graph

Daily Weather History Graph

Search for Another Location

Airport or City:

Trip Planner

Search our weather history database for the weather conditions in past years. The results will help you decide how hot, cold, wet, or windy it might be!

Date:

Astronomy

Dec. 12, 2011 Rise Set
Actual Time 7:44 AM EST 5:07 PM EST
Civil Twilight 7:14 AM EST 5:38 PM EST
Nautical Twilight 6:40 AM EST 6:12 PM EST
Astronomical Twilight 6:07 AM EST 6:45 PM EST
Moon 7:17 PM EST (12/12) 9:15 AM EST (12/12)
Length of Visible Light 10h 24m
Length of Day
9h 23m
Waning Gibbous, 96% of the Moon is Illuminated
Dec 12
Waning Gibbous
Dec 17
Last Quarter
Dec 24
New
Jan 1
First Quarter
Jan 9
Full

Hourly Weather History & Observations

Time (EST) Temp. Windchill Dew Point Humidity Pressure Visibility Wind Dir Wind Speed Gust Speed Precip Events Conditions
12:15 AM 20.5 °F - 15.8 °F 82% 30.45 in 10.0 mi Calm Calm - N/A   Clear
12:35 AM 19.6 °F - 15.6 °F 85% 30.45 in 10.0 mi Calm Calm - N/A   Clear
12:55 AM 19.9 °F - 16.3 °F 86% 30.45 in 10.0 mi Calm Calm - N/A   Clear
1:15 AM 19.0 °F - 15.4 °F 86% 30.44 in 10.0 mi Calm Calm - N/A   Clear
1:35 AM 18.3 °F - 14.7 °F 86% 30.44 in 10.0 mi Calm Calm - N/A   Clear
1:55 AM 18.3 °F - 14.9 °F 86% 30.44 in 10.0 mi Calm Calm - N/A   Clear
2:35 AM 19.8 °F - 15.4 °F 83% 30.45 in 10.0 mi Calm Calm - N/A   Clear
2:55 AM 19.4 °F - 15.4 °F 85% 30.45 in 10.0 mi Calm Calm - N/A   Clear
3:35 AM 19.6 °F - 15.6 °F 85% 30.44 in 10.0 mi Calm Calm - N/A   Clear
3:55 AM 18.3 °F - 15.3 °F 88% 30.44 in 10.0 mi Calm Calm - N/A   Clear
4:15 AM 18.3 °F - 15.1 °F 87% 30.44 in 10.0 mi Calm Calm - N/A   Clear
4:35 AM 17.8 °F - 15.1 °F 89% 30.43 in 10.0 mi Calm Calm - N/A   Clear
4:55 AM 17.2 °F - 14.9 °F 91% 30.43 in 10.0 mi Calm Calm - N/A   Clear
5:15 AM 18.0 °F - 15.4 °F 90% 30.43 in 10.0 mi Calm Calm - N/A   Clear
5:35 AM 17.6 °F - 15.4 °F 91% 30.43 in 10.0 mi Calm Calm - N/A   Clear
5:55 AM 17.6 °F - 15.3 °F 91% 30.44 in 10.0 mi Calm Calm - N/A   Clear
6:15 AM 17.1 °F - 14.9 °F 91% 30.44 in 10.0 mi Calm Calm - N/A   Clear
6:35 AM 17.2 °F - 14.9 °F 91% 30.44 in 10.0 mi Calm Calm - N/A   Clear
6:55 AM 17.1 °F - 14.9 °F 91% 30.44 in 10.0 mi Calm Calm - N/A   Clear
7:15 AM 17.1 °F - 14.7 °F 91% 30.45 in 10.0 mi Calm Calm - N/A   Clear
11:47 AM 37.4 °F - 24.8 °F 60% 30.47 in 10.0 mi Calm Calm - N/A   Clear
12:55 PM 42.8 °F 41.1 °F 21.2 °F 42% 30.45 in 10.0 mi SSW 3.5 mph - N/A   Clear
1:47 PM 42.8 °F 41.1 °F 21.2 °F 42% 30.44 in 10.0 mi SSE 3.5 mph - N/A   Clear
2:47 PM 42.8 °F 39.3 °F 24.8 °F 49% 30.42 in 10.0 mi SSE 5.8 mph - N/A   Clear
3:50 PM 42.8 °F 40.1 °F 24.8 °F 49% 30.42 in 10.0 mi SSE 4.6 mph - N/A   Clear
4:50 PM 39.2 °F - 24.8 °F 56% 30.42 in 10.0 mi Calm Calm - N/A   Clear
6:50 PM 32.0 °F - 24.8 °F 75% 30.42 in 10.0 mi Calm Calm - N/A   Clear
8:15 PM 30.7 °F - 24.4 °F 77% 30.43 in 10.0 mi Calm Calm - N/A   Clear
8:35 PM 29.1 °F - 24.1 °F 81% 30.44 in 10.0 mi Calm Calm - N/A   Clear
8:55 PM 27.5 °F - 23.5 °F 85% 30.43 in 10.0 mi Calm Calm - N/A   Clear
9:15 PM 28.0 °F - 23.5 °F 83% 30.43 in 10.0 mi Calm Calm - N/A   Clear
9:35 PM 28.2 °F - 23.7 °F 83% 30.42 in 10.0 mi Calm Calm - N/A   Clear
9:55 PM 26.6 °F - 22.3 °F 84% 30.42 in 10.0 mi Calm Calm - N/A   Clear
10:15 PM 28.9 °F - 22.8 °F 78% 30.42 in 10.0 mi Calm Calm - N/A   Clear
10:35 PM 27.5 °F - 22.6 °F 82% 30.43 in 10.0 mi Calm Calm - N/A   Clear
10:55 PM 25.5 °F - 22.3 °F 88% 30.43 in 10.0 mi Calm Calm - N/A   Clear
11:15 PM 25.2 °F - 21.9 °F 87% 30.43 in 10.0 mi Calm Calm - N/A   Clear
11:35 PM 25.3 °F - 21.9 °F 87% 30.43 in 10.0 mi Calm Calm - N/A   Clear
11:55 PM 25.2 °F - 21.4 °F 86% 30.44 in 10.0 mi Calm Calm - N/A   Clear